Location: Bieujac
(44.5398°N, 0.1549°W)
Time: 02:12:11
(UTC+00:00)

Cosmos 2346 Rocket - Pass Details

Date: 17 November 2019
Orbit: 935 x 981 km, 82.9° (Epoch: 14 December)

Event Time Altitude Azimuth Distance (km) Brightness Sun altitude
Rises 05:41:47 0° 350° (N) 3,626 7.3 -13.8°
Reaches altitude 10° 05:44:18 10° 349° (N) 2,672 6.6 -13.4°
Maximum altitude 05:50:23 79° 265° (W) 961 4.4 -12.3°
Drops below altitude 10° 05:56:24 10° 179° (S) 2,638 7.0 -11.3°
Sets 05:58:51 0° 178° (S) 3,578 7.7 -10.8°
